STARLINK-36070, 66864

Orbit data source: Space-Track

STARLINK-36070, 66864 is a payload satellite owned by SpaceX/Seattle (US) in LEO that was launched on Tue, 02 Dec 2025 UTC via an FALCON 9 launch vehicle from the Air Force Eastern Test Range (AFETR). Payload-class satellites include a variety of spacecraft equipped with specific instruments for various scientific and technological missions. These include communications satellites like Starlink; space stations such as the ISS; scientific satellites like the Hubble; Earth observation satellites from companies like Planet Labs, Umbra, and HawkEye 360; GPS; miniature CubeSats for education and research; and military/defense satellites.

Loading next visibility...
Identifier
66864, 2025-281S
Orbit
LEO
Country
Flag of USUS
Related business
Manufacturer
SpaceX/Seattle
Mission
Operational Commercial Communications
Bus & Motor
STARLINK V2MO, Unknown motor
Mass
575 kg wet, ~530 kg dry
Launch date (UTC)
2025-12-02 (7 months ago)
Launch vehicle
FALCON 9
Launch site
Air Force Eastern Test Range (AFETR)
Object type
Payload
Rocket body
Debris
Shape & HBR
Box + 2 Pan, 17.7 m
Radar Cross Section
36.964 m², Large (>1 m²)

Expand to show TLE details & history
Last TLE update: 15 hours ago

TLE from 15 hours ago
0 STARLINK-36070
1 66864U 25281S   26171.22226150  .00017642  00000-0  64877-3 0  9990
2 66864  42.9983 124.6760 0001010 265.8161  94.2575 15.27596551 31860
Epoch: 2026-06-20T05:20Z
TLE epoch observation values (Epoch: 2026-06-20T05:20:03.393Z)
Latitude
-0.00004°
Longitude
136.22184°
Altitude
482.826 km
Speed
7.626 km/s
True Right ascension
08h 18m 42s
True Declination
0° 00' 00"
Sunlit
Object was in daylight at epoch
Visualization orbit readout
Latitude
Unknown
Longitude
Unknown
Altitude
Unknown
Speed
Unknown
Apparent Right ascension
Unknown
Apparent Declination
Unknown
Sunlit
N/A
Visualization observer readout
Local Sidereal Time
07:13:17
Azimuth
Unknown
Elevation
Unknown
Doppler factor
Unknown
Orbital elements
Apogee altitude
485.638 km
Perigee altitude
484.252 km
Semi-major axis
6,863.082 km
Eccentricity
0.0001
Inclination
42.9983°
RAAN
124.676°
Arg. of periapsis
265.8161°
True anomaly
94.26904°
Mean anomaly
94.2575°
Eccentric anomaly
94.26327°
Mean motion
3.81737 °/min
Orbital period
94.31 mins
BSTAR
0.00064877
Loading maneuver chart data...
Computing Atmospheric mass density...
Loading historical data...
Loading historical data...
Loading historical data...
Loading historical data...
Loading historical data...
Loading historical data...
Loading historical data...

Documentation

Showing up to 5 results
|